Location: Eaton Estates
(41.3089°N, 82.0057°W)
Time: 13:11:06
(UTC+00:00)

USA 308 - Pass Details

Date: 17 June 2021
Orbit: 566 x 576 km, 54.0° (Epoch: 13 July)

Event Time Altitude Azimuth Distance (km) Brightness Sun altitude
Exits shadow 07:12:34 31° 134° (SE) 1,004 3.9 -21.0°
Maximum altitude 07:12:41 31° 130° (SE) 1,003 4.0 -21.0°
Drops below altitude 10° 07:16:25 10° 68° (ENE) 1,862 6.2 -20.7°
Sets 07:18:50 0° 58° (ENE) 2,762 7.4 -20.5°
